Погода в Старой Ладоге

Россия / Санкт-Петербург и Ленинградская область     60°00′04″N   32°17′32″E
темп.,
°C
ветер,
м/с
пор.,
м/с
влажн.,
%
обл.,
%
осадки,
мм/ч
давл.,
гПа
погр.,
м
28 сентября, вт
вт2800:00+6всв23940 0.0 103256
03:00+5всв11961 0.0 103214
06:00+5в21955 0.0 103317
09:00+8в24848 0.0 1034179
12:00+11вюв246529 0.0 1034900
15:00+11юв3364100 0.0 10341008
18:00+10ююв127142 0.0 103547
21:00+6ююз11845 0.0 103610
29 сентября, ср
ср2900:00+5ю118851 0.0 103710
03:00+4ю119056 0.0 103711
06:00+4ю1191100 0.0 103712
09:00+7ююз1279100 0.0 1037103
12:00+11ю116127 0.0 1037599
15:00+13ююз115655 0.0 1036945
18:00+8св117914 0.0 103615
21:00+6ююв11875 0.0 103510
30 сентября, чт
чт3000:00+5ю11875 0.0 103610
03:00+4ююз11895 0.0 103611
06:00+4ю11925 0.0 103611
09:00+7ю127951 0.0 1036116
12:00+11ююв236285 0.0 1035555
15:00+13ю235880 0.0 1034806
18:00+9юв227965 0.0 103334
21:00+6ю239160 0.0 103352
1 октября, пт
пт100:00+5ю23935 0.0 103351
03:00+4ю24935 0.0 103378
06:00+3ю26947 0.0 1032114
09:00+6ю398028 0.0 1032243
12:00+11ююз466127 0.0 1032592
15:00+13ююз355858 0.0 1031840
18:00+10ю2578100 0.0 1030111
21:00+10ю3878100 0.0 1031243
2 октября, сб
сб200:00+9ю278195 0.0 1030213
03:00+8ю2784100 0.0 1030187
06:00+6ю3893100 0.0 1030178
09:00+8ю388330 0.0 1029255
12:00+12ю466312 0.0 1029574
15:00+13ю46585 0.0 1028912
18:00+10ю37755 0.0 1028185
21:00+7ю310880 0.0 1028246